Location: ???????
(54.9996°N, 37.9529°E)
Time: 05:53:30
(UTC+00:00)

Cosmos 1933 Rocket - Pass Details

Date: 14 April 2024
Orbit: 602 x 623 km, 82.5° (Epoch: 12 May)

Event Time Altitude Azimuth Distance (km) Brightness Sun altitude
Rises 01:41:32 0° 349° (NNW) 2,903 7.2 -6.8°
Reaches altitude 10° 01:43:47 10° 351° (N) 1,989 6.4 -6.5°
Maximum altitude 01:48:11 76° 77° (ENE) 638 3.8 -6.0°
Drops below altitude 10° 01:52:31 10° 163° (SSE) 1,958 6.1 -5.4°
Sets 01:54:43 0° 166° (SSE) 2,854 6.9 -5.1°
